TimeEST,TemperatureF,Dew PointF,Humidity,Sea Level PressureIn,VisibilityMPH,Wind Direction,Wind SpeedMPH,Gust SpeedMPH,PrecipitationIn,Events,Conditions,WindDirDegrees,DateUTC
12:54 AM,48.9,28.9,46,30.30,10.0,SE,8.1,-,N/A,,Mostly Cloudy,140,2013-11-06 05:54:00
1:54 AM,48.9,30.0,48,30.27,10.0,SSE,8.1,-,N/A,,Mostly Cloudy,160,2013-11-06 06:54:00
2:54 AM,48.0,30.9,52,30.24,10.0,SSE,6.9,-,N/A,,Mostly Cloudy,150,2013-11-06 07:54:00
3:54 AM,48.9,30.9,50,30.22,10.0,South,6.9,-,N/A,,Mostly Cloudy,170,2013-11-06 08:54:00
4:54 AM,48.0,32.0,54,30.22,10.0,SSE,5.8,-,N/A,,Mostly Cloudy,160,2013-11-06 09:54:00
5:54 AM,51.1,32.0,48,30.20,10.0,South,10.4,-,N/A,,Mostly Cloudy,190,2013-11-06 10:54:00
6:54 AM,51.1,34.0,52,30.16,10.0,SSW,10.4,-,N/A,,Mostly Cloudy,200,2013-11-06 11:54:00
7:54 AM,51.1,34.0,52,30.15,10.0,SSW,10.4,-,N/A,,Mostly Cloudy,200,2013-11-06 12:54:00
8:54 AM,54.0,36.0,51,30.12,10.0,South,13.8,20.7,N/A,,Mostly Cloudy,190,2013-11-06 13:54:00
9:54 AM,57.0,37.9,49,30.09,10.0,South,19.6,25.3,N/A,,Mostly Cloudy,190,2013-11-06 14:54:00
10:54 AM,61.0,41.0,48,30.07,10.0,SSW,19.6,25.3,N/A,,Overcast,200,2013-11-06 15:54:00
11:54 AM,62.1,44.1,52,30.04,10.0,SSW,18.4,26.5,N/A,,Mostly Cloudy,200,2013-11-06 16:54:00
12:54 PM,63.0,46.0,54,30.00,10.0,SSW,19.6,27.6,N/A,,Overcast,200,2013-11-06 17:54:00
1:54 PM,66.0,48.0,52,29.95,10.0,SSW,16.1,24.2,N/A,,Mostly Cloudy,200,2013-11-06 18:54:00
2:54 PM,66.0,46.9,50,29.92,10.0,South,21.9,27.6,N/A,,Overcast,190,2013-11-06 19:54:00
3:54 PM,66.9,46.9,49,29.89,10.0,SSW,18.4,27.6,N/A,,Mostly Cloudy,200,2013-11-06 20:54:00
4:54 PM,66.0,46.9,50,29.87,10.0,SSW,17.3,24.2,N/A,,Overcast,200,2013-11-06 21:54:00
5:54 PM,66.0,48.0,52,29.85,10.0,SSW,16.1,-,0.00,Rain,Light Rain,210,2013-11-06 22:54:00
6:54 PM,61.0,52.0,72,29.86,8.0,SW,13.8,-,0.02,Rain,Rain,230,2013-11-06 23:54:00
7:50 PM,57.2,55.4,94,29.86,4.0,WSW,19.6,24.2,0.06,Rain,Heavy Rain,240,2013-11-07 00:50:00
7:54 PM,57.0,55.0,93,29.87,3.0,WSW,18.4,25.3,0.07,Rain,Rain,240,2013-11-07 00:54:00
8:18 PM,57.2,55.4,94,29.85,3.0,SW,15.0,-,0.05,Rain,Rain,230,2013-11-07 01:18:00
8:54 PM,57.0,55.0,93,29.85,4.0,SW,15.0,-,0.12,Rain,Rain,220,2013-11-07 01:54:00
9:12 PM,57.2,55.4,94,29.84,6.0,SW,16.1,23.0,0.02,Rain,Rain,220,2013-11-07 02:12:00
9:54 PM,57.0,55.0,93,29.83,3.0,SW,19.6,25.3,0.12,Rain,Rain,230,2013-11-07 02:54:00
10:19 PM,57.2,55.4,94,29.83,6.0,WSW,18.4,26.5,0.02,Rain,Light Rain,240,2013-11-07 03:19:00
10:54 PM,55.9,54.0,93,29.82,5.0,WSW,19.6,38.0,0.07,Rain,Light Rain,250,2013-11-07 03:54:00
11:54 PM,55.0,53.1,93,29.81,10.0,SW,19.6,28.8,0.03,Rain,Light Rain,230,2013-11-07 04:54:00